{"data":{"norad_id":62675,"intl_designator":"2025-009BU","name":"FLOCK 4G-36","alt_names":[],"object_type":"PAYLOAD","status":"ACTIVE","operator":null,"country":"US","launch_date":"2025-01-14","launch_site_code":"AFWTR","launch_vehicle":null,"mission":null,"orbit_class":"UNKNOWN","rcs_meters":null,"size_class":null,"mass_kg":null,"dimensions":null,"purposes":["earth_obs"],"wikipedia_slug":null,"has_3d_model":false,"image_url":null,"decayed_at":null,"tle_current":{"epoch":"2026-09-19T15:43:44.596128Z","epoch_age_seconds":91295,"freshness":"FRESH","line1":"1 62675U 25009BU  26262.65537727  .00007615  00000+0  25656-3 0  9997","line2":"2 62675  97.3957 344.0272 0004052   4.5622 355.5656 15.31026307 93342","mean_motion":15.31026307,"eccentricity":0.0004052,"inclination_deg":97.3957,"raan_deg":344.0272,"arg_perigee_deg":4.5622,"mean_anomaly_deg":355.5656,"bstar":0.00025656,"rev_number":9334,"period_min":94.054556307503,"perigee_km":469.97299637063,"apogee_km":475.52495436507,"semimajor_km":6850.8859753678,"source":"CELESTRAK","updated_at":"2026-09-20T09:00:34.723227Z"}}}